Terminal Aerodrome Forecast
Issued by NWS Lubbock, TX

Home | Current Version | Previous Version | Text Only | Print | Product List | Glossary On
Versions: 1 2 3 4 5 6 7 8 9 10 11 12 13 14 15 16 17
000
FTUS44 KLUB 262320
TAFLBB
TAF
KLBB 262320Z 2700/2724 21011KT P6SM SCT250
     FM270900 18011KT 6SM BR SCT004
     FM271500 19011KT P6SM SCT050=

USA.gov is the U.S. government's official web portal to all federal, state and local government web resources and services.